ZL1UTH Weather Reports


Display with metric or nautical units.
time (UTC)temp
F
wind
direction
speed
MPH
gust
MPH
rain 1hr
in
rain 24hr
in
rain mn
in
humidity
%
barometer
mb
20260505034803 66 0 0.0 0.0 0.00 0.00 0.00 59 1040.0
20260505034504 66 0 0.0 0.0 0.00 0.00 0.00 59 1040.0
20260505034206 67 0 0.0 0.0 0.00 0.00 0.00 58 1040.1
20260505033904 67 0 0.0 0.0 0.00 0.00 0.00 58 1040.1
20260505033603 67 0 0.0 0.0 0.00 0.00 0.00 58 1040.1
20260505033003 67 0 0.0 0.0 0.00 0.00 0.00 57 1040.1
20260505032704 67 0 0.0 0.0 0.00 0.00 0.00 57 1040.0
20260505032404 67 0 0.0 0.0 0.00 0.00 0.00 57 1039.9
20260505032104 67 0 0.0 0.0 0.00 0.00 0.00 58 1040.0
20260505031803 67 0 0.0 0.0 0.00 0.00 0.00 58 1039.9
20260505031504 67 0 0.0 0.0 0.00 0.00 0.00 58 1040.1
20260505031204 66 0 0.0 0.0 0.00 0.00 0.00 58 1040.0
20260505030303 67 45 0.0 1.0 0.00 0.00 0.00 56 1040.0
20260505030004 67 45 0.0 1.0 0.00 0.00 0.00 55 1040.1
20260505025404 68 0 0.0 0.0 0.00 0.00 0.00 54 1040.1
20260505025104 68 181 0.0 2.0 0.00 0.00 0.00 54 1040.2
20260505024803 68 181 0.0 2.0 0.00 0.00 0.00 54 1040.2
20260505024504 68 181 0.0 2.0 0.00 0.00 0.00 54 1040.2
20260505024204 68 0 0.0 0.0 0.00 0.00 0.00 55 1040.2
20260505023904 68 0 0.0 0.0 0.00 0.00 0.00 55 1040.2
20260505023603 68 0 0.0 0.0 0.00 0.00 0.00 55 1040.2
20260505023310 68 0 0.0 0.0 0.00 0.00 0.00 57 1040.2
20260505023004 67 0 0.0 0.0 0.00 0.00 0.00 55 1040.3
20260505022404 69 0 0.0 0.0 0.00 0.00 0.00 53 1040.3
20260505022103 69 0 0.0 0.0 0.00 0.00 0.00 52 1040.3
20260505021804 70 0 0.0 0.0 0.00 0.00 0.00 50 1040.4
20260505021503 71 0 0.0 0.0 0.00 0.00 0.00 50 1040.2
20260505021203 71 0 0.0 0.0 0.00 0.00 0.00 50 1040.3
20260505020904 72 225 0.0 1.0 0.00 0.00 0.00 48 1040.4
20260505020603 72 225 0.0 1.0 0.00 0.00 0.00 49 1040.2
20260505020304 72 225 0.0 1.0 0.00 0.00 0.00 49 1040.3
20260505020004 72 225 0.0 1.0 0.00 0.00 0.00 49 1040.2
20260505015703 72 0 0.0 0.0 0.00 0.00 0.00 50 1040.3
20260505015404 71 0 0.0 0.0 0.00 0.00 0.00 51 1040.3
20260505015104 71 0 0.0 0.0 0.00 0.00 0.00 51 1040.4
20260505014803 69 0 0.0 0.0 0.00 0.00 0.00 54 1040.3
20260505014504 69 0 0.0 0.0 0.00 0.00 0.00 53 1040.3
20260505014203 69 0 0.0 0.0 0.00 0.00 0.00 53 1040.5
20260505013905 69 0 0.0 0.0 0.00 0.00 0.00 53 1040.4
20260505013303 69 0 0.0 0.0 0.00 0.00 0.00 53 1040.6
20260505013005 69 0 0.0 0.0 0.00 0.00 0.00 54 1040.5
20260505012704 69 0 0.0 0.0 0.00 0.00 0.00 54 1040.5
20260505012406 69 0 0.0 0.0 0.00 0.00 0.00 54 1040.7
20260505012103 68 0 0.0 0.0 0.00 0.00 0.00 54 1040.7
20260505011804 68 0 0.0 0.0 0.00 0.00 0.00 55 1040.8
20260505011504 68 0 0.0 0.0 0.00 0.00 0.00 55 1040.8
20260505011205 68 0 0.0 0.0 0.00 0.00 0.00 55 1040.8
20260505010903 68 0 0.0 0.0 0.00 0.00 0.00 55 1040.8
20260505010604 68 292 0.0 1.0 0.00 0.00 0.00 57 1041.0
20260505010303 68 292 0.0 1.0 0.00 0.00 0.00 57 1041.1
20260505010004 67 292 0.0 1.0 0.00 0.00 0.00 57 1041.1
20260505005704 67 0 0.0 0.0 0.00 0.00 0.00 57 1041.1
20260505005404 67 0 0.0 0.0 0.00 0.00 0.00 57 1041.2
20260505004804 67 0 0.0 0.0 0.00 0.00 0.00 57 1041.1
20260505004204 67 225 0.0 1.0 0.00 0.00 0.00 57 1041.3
20260505003903 67 225 0.0 1.0 0.00 0.00 0.00 57 1041.4
20260505003304 67 0 0.0 0.0 0.00 0.00 0.00 56 1041.4
20260505003004 68 0 0.0 0.0 0.00 0.00 0.00 55 1041.3
20260505002704 68 0 0.0 0.0 0.00 0.00 0.00 56 1041.6
20260505002404 67 0 0.0 0.0 0.00 0.00 0.00 57 1041.7
20260505002103 67 0 0.0 0.0 0.00 0.00 0.00 56 1041.7
20260505001804 67 0 0.0 0.0 0.00 0.00 0.00 57 1041.8
20260505001503 67 270 0.0 1.0 0.00 0.00 0.00 56 1041.8
20260505001203 67 270 0.0 1.0 0.00 0.00 0.00 56 1041.9
20260505000904 67 270 0.0 1.0 0.00 0.00 0.00 56 1041.9
20260505000303 67 0 0.0 0.0 0.00 0.00 0.00 56 1042.0
20260505000003 67 0 0.0 0.0 0.00 0.00 0.00 55 1042.1
20260504235706 67 0 0.0 0.0 0.00 0.00 0.00 55 1042.1
20260504235404 68 0 0.0 0.0 0.00 0.00 0.00 55 1042.0
20260504235103 67 0 0.0 0.0 0.00 0.00 0.00 54 1042.1
20260504234804 68 0 0.0 0.0 0.00 0.00 0.00 56 1042.1
20260504234504 67 0 0.0 0.0 0.00 0.00 0.00 57 1042.2
20260504233903 66 0 0.0 0.0 0.00 0.00 0.00 56 1042.1
20260504233606 66 0 0.0 0.0 0.00 0.00 0.00 57 1042.2
20260504233304 66 0 0.0 0.0 0.00 0.00 0.00 57 1042.2
20260504233004 65 0 0.0 0.0 0.00 0.00 0.00 59 1042.4
20260504232707 65 0 0.0 0.0 0.00 0.00 0.00 59 1042.4
20260504232403 64 0 0.0 0.0 0.00 0.00 0.00 59 1042.4
20260504232104 65 0 0.0 0.0 0.00 0.00 0.00 59 1042.4
20260504231803 64 296 0.0 1.0 0.00 0.00 0.00 58 1042.5
20260504231504 65 257 0.0 1.0 0.00 0.00 0.00 57 1042.3
20260504231205 65 259 0.0 1.0 0.00 0.00 0.00 58 1042.5
20260504230904 65 206 0.0 1.0 0.00 0.00 0.00 56 1042.6
20260504230603 66 233 0.0 2.0 0.00 0.00 0.00 54 1042.5
20260504230304 67 221 0.0 2.0 0.00 0.00 0.00 54 1042.6
20260504225704 67 221 0.0 4.0 0.00 0.00 0.00 54 1042.5
20260504225403 68 211 0.0 4.0 0.00 0.00 0.00 53 1042.4
20260504224803 67 209 0.0 2.0 0.00 0.00 0.00 59 1042.7
20260504224503 65 225 0.0 2.0 0.00 0.00 0.00 62 1042.6
20260504224205 64 243 0.0 3.0 0.00 0.00 0.00 62 1042.7
20260504223605 63 260 1.0 3.0 0.00 0.00 0.00 62 1042.8
20260504223303 63 262 2.0 3.0 0.00 0.00 0.00 65 1042.8
20260504223004 62 271 0.0 2.0 0.00 0.00 0.00 69 1042.8
20260504222703 61 289 0.0 2.0 0.00 0.00 0.00 68 1042.8
20260504222104 60 264 2.0 2.0 0.00 0.00 0.00 71 1042.8
20260504221803 60 243 1.0 3.0 0.00 0.00 0.00 72 1043.0
20260504221504 59 236 1.0 3.0 0.00 0.00 0.00 72 1042.9
20260504221203 58 245 0.0 3.0 0.00 0.00 0.00 75 1042.9
20260504220605 57 275 1.0 3.0 0.00 0.00 0.00 80 1043.0
20260504220304 56 300 1.0 3.0 0.00 0.00 0.00 82 1043.1
20260504220004 56 309 1.0 3.0 0.00 0.00 0.00 84 1042.9
20260504215704 56 306 2.0 3.0 0.00 0.00 0.00 89 1043.3
20260504214804 56 248 1.0 2.0 0.00 0.00 0.00 98 1043.1
20260504214503 55 271 0.0 2.0 0.00 0.00 0.00 97 1043.1
20260504214203 54 274 0.0 2.0 0.00 0.00 0.00 97 1043.0
20260504213904 53 267 0.0 2.0 0.00 0.00 0.00 98 1043.3
20260504213603 52 257 0.0 3.0 0.00 0.00 0.00 98 1043.0
20260504213003 51 246 1.0 3.0 0.00 0.00 0.00 99 1043.1
20260504212403 49 235 2.0 3.0 0.00 0.00 0.00 99 1043.3
20260504212104 49 210 1.0 2.0 0.00 0.00 0.00 99 1043.0
20260504211503 47 237 0.0 2.0 0.00 0.00 0.00 99 1043.3
20260504211204 47 252 0.0 2.0 0.00 0.00 0.00 99 1043.4
20260504210904 48 259 0.0 2.0 0.00 0.00 0.00 99 1043.4
20260504210604 48 267 2.0 2.0 0.00 0.00 0.00 99 1043.3
20260504210303 48 0 0.0 0.0 0.00 0.00 0.00 99 1043.3
20260504210004 47 0 0.0 0.0 0.00 0.00 0.00 99 1043.2
20260504205704 46 0 0.0 0.0 0.00 0.00 0.00 97 1043.3
20260504205404 45 0 0.0 0.0 0.00 0.00 0.00 97 1043.3
20260504205104 45 0 0.0 0.0 0.00 0.00 0.00 97 1043.4
20260504204803 44 0 0.0 0.0 0.00 0.00 0.00 98 1043.3
20260504204504 44 0 0.0 0.0 0.00 0.00 0.00 98 1043.3
20260504204204 44 0 0.0 0.0 0.00 0.00 0.00 98 1043.4
20260504203904 44 0 0.0 0.0 0.00 0.00 0.00 98 1043.4
20260504203603 44 0 0.0 0.0 0.00 0.00 0.00 98 1043.4
20260504203303 43 0 0.0 0.0 0.00 0.00 0.00 98 1043.4
20260504203004 43 0 0.0 0.0 0.00 0.00 0.00 98 1043.6
20260504202704 43 0 0.0 0.0 0.00 0.00 0.00 98 1043.4
20260504202403 43 0 0.0 0.0 0.00 0.00 0.00 98 1043.5
20260504202104 43 0 0.0 0.0 0.00 0.00 0.00 98 1043.5
20260504201803 43 0 0.0 0.0 0.00 0.00 0.00 99 1043.4
20260504201504 43 0 0.0 0.0 0.00 0.00 0.00 99 1043.5
20260504201206 43 0 0.0 0.0 0.00 0.00 0.00 99 1043.5
20260504200904 42 0 0.0 0.0 0.00 0.00 0.00 99 1043.5
20260504200604 42 0 0.0 0.0 0.00 0.00 0.00 99 1043.5
20260504200303 42 0 0.0 0.0 0.00 0.00 0.00 99 1043.5
20260504200004 42 0 0.0 0.0 0.00 0.00 0.00 99 1043.5
20260504195704 42 0 0.0 0.0 0.00 0.00 0.00 99 1043.3
20260504195404 42 0 0.0 0.0 0.00 0.00 0.00 99 1043.4
20260504195104 42 0 0.0 0.0 0.00 0.00 0.00 99 1043.4
20260504194803 42 0 0.0 0.0 0.00 0.00 0.00 99 1043.3
20260504194504 42 0 0.0 0.0 0.00 0.00 0.00 99 1043.3
20260504194204 42 0 0.0 0.0 0.00 0.00 0.00 99 1043.3
20260504193903 42 0 0.0 0.0 0.00 0.00 0.00 99 1043.4
20260504193304 42 0 0.0 0.0 0.00 0.00 0.00 99 1043.3
20260504192704 42 0 0.0 0.0 0.00 0.00 0.00 99 1043.3
20260504192104 42 0 0.0 0.0 0.00 0.00 0.00 99 1043.3
20260504191803 42 0 0.0 0.0 0.00 0.00 0.00 99 1043.3
20260504191505 42 0 0.0 0.0 0.00 0.00 0.00 99 1043.4
20260504191204 42 0 0.0 0.0 0.00 0.00 0.00 99 1043.3
20260504190904 42 0 0.0 0.0 0.00 0.00 0.00 99 1043.2
20260504190603 42 0 0.0 0.0 0.00 0.00 0.00 99 1043.3
20260504190304 42 0 0.0 0.0 0.00 0.00 0.00 99 1043.1
20260504190004 42 0 0.0 0.0 0.00 0.00 0.00 99 1043.2
20260504185406 43 0 0.0 0.0 0.00 0.00 0.00 99 1043.1
20260504185104 43 0 0.0 0.0 0.00 0.00 0.00 99 1043.1
20260504184803 43 0 0.0 0.0 0.00 0.00 0.00 98 1043.0
20260504184504 43 0 0.0 0.0 0.00 0.00 0.00 98 1043.0
20260504184207 43 0 0.0 0.0 0.00 0.00 0.00 98 1043.0
20260504183904 43 0 0.0 0.0 0.00 0.00 0.00 98 1043.1
20260504183606 43 0 0.0 0.0 0.00 0.00 0.00 98 1043.1
20260504183303 43 0 0.0 0.0 0.00 0.00 0.00 98 1043.3
20260504183004 43 0 0.0 0.0 0.00 0.00 0.00 98 1043.3
20260504182704 43 0 0.0 0.0 0.00 0.00 0.00 98 1043.3
20260504182403 43 0 0.0 0.0 0.00 0.00 0.00 98 1043.2
20260504182106 43 0 0.0 0.0 0.00 0.00 0.00 98 1043.2
20260504181803 43 0 0.0 0.0 0.00 0.00 0.00 98 1043.3
20260504181504 43 0 0.0 0.0 0.00 0.00 0.00 98 1043.2
20260504181203 43 0 0.0 0.0 0.00 0.00 0.00 98 1043.3
20260504180605 43 0 0.0 0.0 0.00 0.00 0.00 98 1043.0
20260504180005 43 0 0.0 0.0 0.00 0.00 0.00 98 1043.2
20260504175705 43 0 0.0 0.0 0.00 0.00 0.00 98 1043.2
20260504175404 43 0 0.0 0.0 0.00 0.00 0.00 98 1043.2
20260504175104 43 0 0.0 0.0 0.00 0.00 0.00 98 1043.3
20260504174804 43 0 0.0 0.0 0.00 0.00 0.00 98 1043.3
20260504174504 44 0 0.0 0.0 0.00 0.00 0.00 98 1043.2
20260504174204 44 0 0.0 0.0 0.00 0.00 0.00 98 1043.0
20260504173603 44 0 0.0 0.0 0.00 0.00 0.00 98 1043.2
20260504173304 44 0 0.0 0.0 0.00 0.00 0.00 98 1043.2
20260504173006 44 0 0.0 0.0 0.00 0.00 0.00 98 1043.2
20260504172704 44 0 0.0 0.0 0.00 0.00 0.00 98 1043.2
20260504172104 44 0 0.0 0.0 0.00 0.00 0.00 98 1043.2
20260504171803 44 0 0.0 0.0 0.00 0.00 0.00 98 1043.2
20260504171205 44 0 0.0 0.0 0.00 0.00 0.00 98 1043.2
20260504170904 44 0 0.0 0.0 0.00 0.00 0.00 98 1043.2
20260504170604 44 0 0.0 0.0 0.00 0.00 0.00 98 1043.1
20260504150603 46 0 0.0 0.0 0.00 0.00 0.00 97 1043.6
20260504150305 46 0 0.0 0.0 0.00 0.00 0.00 97 1043.7
20260504141204 50 343 0.0 3.0 0.00 0.00 0.00 98 1044.3
20260504140904 50 323 0.0 1.0 0.00 0.00 0.00 98 1044.4
20260504140604 50 348 0.0 1.0 0.00 0.00 0.00 98 1044.4
20260504140303 50 1 0.0 1.0 0.00 0.00 0.00 98 1044.5
20260504130603 50 270 0.0 2.0 0.00 0.00 0.00 98 1044.3
20260504130305 50 233 0.0 2.0 0.00 0.00 0.00 98 1044.4
20260504120304 49 135 0.0 2.0 0.00 0.00 0.00 97 1044.0
20260504110604 49 343 0.0 2.0 0.00 0.00 0.00 97 1044.2
20260504110304 49 332 0.0 2.0 0.00 0.00 0.00 97 1044.1
20260504100604 48 354 0.0 2.0 0.00 0.00 0.00 96 1044.5
20260504100304 48 347 0.0 2.0 0.00 0.00 0.00 97 1044.4
20260504081804 50 174 0.0 2.0 0.00 0.00 0.00 95 1043.9
20260504081503 50 163 1.0 2.0 0.00 0.00 0.00 95 1043.7
20260504081204 49 213 2.0 2.0 0.00 0.00 0.00 95 1043.7
20260504080903 49 270 0.0 1.0 0.00 0.00 0.00 95 1043.8
20260504080604 49 293 0.0 2.0 0.00 0.00 0.00 95 1043.7
20260504080304 49 289 0.0 2.0 0.00 0.00 0.00 95 1043.7
20260504070304 47 0 0.0 0.0 0.00 0.00 0.00 93 1043.4
20260504050603 59 0 0.0 0.0 0.00 0.00 0.00 69 1042.1
20260504050303 60 0 0.0 0.0 0.00 0.00 0.00 69 1042.1
20260504050004 60 0 0.0 0.0 0.00 0.00 0.00 68 1042.0
20260504045404 62 0 0.0 0.0 0.00 0.00 0.00 64 1042.1
20260504045104 62 0 0.0 0.0 0.00 0.00 0.00 64 1042.1
20260504044805 63 0 0.0 0.0 0.00 0.00 0.00 64 1042.0
20260504044204 62 0 0.0 0.0 0.00 0.00 0.00 64 1042.0
20260504043904 62 135 0.0 1.0 0.00 0.00 0.00 63 1042.2
20260504043604 62 135 0.0 2.0 0.00 0.00 0.00 63 1042.0
20260504043305 62 135 0.0 2.0 0.00 0.00 0.00 63 1041.9
20260504042404 62 135 0.0 2.0 0.00 0.00 0.00 62 1042.0
20260504041804 63 135 0.0 4.0 0.00 0.00 0.00 59 1042.2
20260504041504 63 135 0.0 4.0 0.00 0.00 0.00 58 1042.1
20260504041203 65 135 2.0 4.0 0.00 0.00 0.00 55 1042.0
20260504040604 67 0 0.0 0.0 0.00 0.00 0.00 54 1042.1
20260504040304 67 0 0.0 0.0 0.00 0.00 0.00 54 1042.1
20260504040005 67 0 0.0 0.0 0.00 0.00 0.00 54 1042.1
20260504035404 66 0 0.0 0.0 0.00 0.00 0.00 55 1042.0
20260504035104 66 0 0.0 0.0 0.00 0.00 0.00 56 1042.1